This demonstration page uses our WeatherBlox Daily Observations layout. Learn more.

40.92945, -100.16068

Hourly Observations for December 20, 2016

Temp ( °F °C ) Dew Point ( °F °C ) Humidity (%) Winds ( mph kmh ) Pressure ( in mb ) Visibility ( mi km ) Precip ( " mm )
12:15 am 00:15 Clear 24 -4.7 16 -8.9 73 73 W 3 6 30.24 1024 10 16.0934 N/A
12:35 am 00:35 Clear 22 -5.5 15 -9.3 75 75 W 5 7 30.24 1024 10 16.0934 N/A
12:55 am 00:55 Clear 21 -6 15 -9.3 78 78 W 7 11 30.24 1024 10 16.0934 N/A
1:15 am 01:15 Clear 22 -5.8 15 -9.2 77 77 WSW 5 7 30.27 1025 10 16.0934 N/A
1:35 am 01:35 Clear 21 -6 15 -9.3 78 78 SW 8 13 30.24 1024 10 16.0934 N/A
1:55 am 01:55 Clear 23 -5 16 -8.8 75 75 W 5 7 30.27 1025 10 16.0934 N/A
2:15 am 02:15 Clear 22 -5.5 16 -9 77 77 W 7 11 30.27 1025 10 16.0934 N/A
2:35 am 02:35 Clear 21 -6.1 15 -9.2 79 79 WNW 5 7 30.27 1025 10 16.0934 N/A
2:55 am 02:55 Clear 21 -6 15 -9.4 77 77 W 7 11 30.27 1025 10 16.0934 N/A
3:15 am 03:15 Clear 22 -5.5 16 -8.8 78 78 NW 8 13 30.3 1026 10 16.0934 N/A
3:35 am 03:35 Clear 21 -6.2 15 -9.4 78 78 Calm 30.3 1026 10 16.0934 N/A
3:55 am 03:55 Clear 24 -4.6 17 -8.5 74 74 WNW 6 9 30.33 1027 10 16.0934 N/A
4:15 am 04:15 Clear 26 -3.6 18 -7.7 74 74 WNW 9 15 30.3 1026 10 16.0934 N/A
4:35 am 04:35 Clear 26 -3.1 19 -7.2 74 74 WNW 8 13 30.3 1026 10 16.0934 N/A
4:55 am 04:55 Clear 29 -1.7 20 -6.5 70 70 WNW 9 15 30.33 1027 10 16.0934 N/A
5:15 am 05:15 Clear 27 -2.7 20 -6.9 73 73 WNW 9 15 30.33 1027 10 16.0934 N/A
5:35 am 05:35 Clear 27 -2.8 20 -6.7 75 75 W 8 13 30.33 1027 10 16.0934 N/A
5:55 am 05:55 Clear 27 -2.7 20 -6.6 75 75 W 7 11 30.33 1027 10 16.0934 N/A
6:15 am 06:15 Clear 28 -2.5 20 -6.5 74 74 W 6 9 30.33 1027 10 16.0934 N/A
6:35 am 06:35 Clear 26 -3.3 20 -6.8 77 77 W 10 17 30.39 1029 10 16.0934 N/A
6:55 am 06:55 Clear 29 -1.8 20 -6.4 71 71 WNW 7 11 30.36 1028 10 16.0934 N/A
7:15 am 07:15 Clear 28 -2.2 20 -6.6 72 72 W 6 9 30.39 1029 10 16.0934 N/A
7:35 am 07:35 Clear 26 -3.4 19 -7.2 75 75 Calm 30.39 1029 10 16.0934 N/A
7:55 am 07:55 Clear 26 -3.5 19 -7.1 76 76 Calm 30.39 1029 10 16.0934 N/A
8:15 am 08:15 Sunny 26 -3.5 19 -7 77 77 NW 3 6 30.39 1029 10 16.0934 N/A
8:35 am 08:35 Sunny 23 -4.8 18 -8 79 79 W 5 7 30.42 1030 10 16.0934 N/A
8:55 am 08:55 Sunny 22 -5.5 18 -8 83 83 Calm 30.42 1030 10 16.0934 N/A
9:15 am 09:15 Sunny 29 -1.5 22 -5.5 74 74 W 5 7 30.39 1029 7 11.26538 N/A
9:35 am 09:35 Sunny 31 -0.6 23 -5.1 72 72 Calm 30.39 1029 10 16.0934 N/A
9:55 am 09:55 Sunny 35 1.4 23 -4.8 64 64 WNW 3 6 30.36 1028 10 16.0934 N/A
10:15 am 10:15 Sunny 39 3.7 24 -4.7 55 55 W 3 6 30.33 1027 10 16.0934 N/A
10:35 am 10:35 Sunny 42 5.4 23 -4.9 48 48 Calm 30.33 1027 10 16.0934 N/A
10:55 am 10:55 Sunny 43 6.3 22 -5.5 43 43 W 3 6 30.3 1026 10 16.0934 N/A
11:15 am 11:15 Sunny 44 6.9 21 -6.1 39 39 Calm 30.3 1026 10 16.0934 N/A
11:35 am 11:35 Sunny 46 7.9 19 -7 34 34 Calm 30.3 1026 10 16.0934 N/A
11:55 am 11:55 Sunny 47 8.5 19 -7.3 32 32 SW 5 7 30.3 1026 10 16.0934 N/A
12:15 pm 12:15 Sunny 49 9.2 19 -7.2 31 31 SSW 7 11 30.27 1025 10 16.0934 N/A
12:35 pm 12:35 Sunny 48 9.1 20 -6.8 32 32 SSW 6 9 30.24 1024 10 16.0934 N/A
12:50 pm 12:50 Sunny 49 9.2 20 -6.7 32 32 SSW 9 15 30.24 1024 10 16.0934 N/A
1:15 pm 13:15 Sunny 48 8.7 22 -5.6 36 36 SW 9 15 30.27 1025 10 16.0934 N/A
1:35 pm 13:35 Sunny 47 8.5 21 -6.1 35 35 SSW 12 19 30.24 1024 10 16.0934 N/A
1:55 pm 13:55 Sunny 49 9.7 22 -5.8 33 33 SSW 12 19 30.21 1023 10 16.0934 N/A
2:15 pm 14:15 Sunny 48 9.1 20 -6.5 33 33 SSW 10 17 30.18 1022 10 16.0934 N/A
2:35 pm 14:35 Sunny 48 8.7 20 -6.7 33 33 SSW 9 15 30.18 1022 10 16.0934 N/A
2:55 pm 14:55 Sunny 47 8.5 20 -6.6 34 34 SSW 8 13 30.18 1022 10 16.0934 N/A
3:15 pm 15:15 Sunny 46 8 21 -6.1 37 37 SSW 8 13 30.15 1021 10 16.0934 N/A
3:35 pm 15:35 Sunny 46 7.7 20 -6.6 36 36 S 7 11 30.18 1022 10 16.0934 N/A
3:55 pm 15:55 Sunny 45 7.2 20 -6.9 36 36 S 6 9 30.18 1022 10 16.0934 N/A
4:15 pm 16:15 Sunny 43 6 20 -6.7 40 40 S 7 11 30.15 1021 10 16.0934 N/A
4:35 pm 16:35 Sunny 43 6.2 20 -6.9 39 39 SE 5 7 30.15 1021 10 16.0934 N/A
4:55 pm 16:55 Sunny 42 5.4 19 -7.1 40 40 SSE 5 7 30.15 1021 10 16.0934 N/A
5:15 pm 17:15 Clear 39 3.9 19 -7 45 45 S 6 9 30.18 1022 10 16.0934 N/A
5:35 pm 17:35 Clear 38 3.2 20 -6.8 48 48 SSE 8 13 30.18 1022 10 16.0934 N/A
5:55 pm 17:55 Clear 38 3.2 20 -6.6 49 49 SSE 8 13 30.18 1022 10 16.0934 N/A
6:15 pm 18:15 Clear 37 3 20 -6.7 49 49 S 6 9 30.18 1022 10 16.0934 N/A
6:35 pm 18:35 Clear 36 2.2 20 -6.5 53 53 S 7 11 30.18 1022 10 16.0934 N/A
6:55 pm 18:55 Clear 37 2.6 21 -6.1 53 53 S 9 15 30.15 1021 10 16.0934 N/A
7:15 pm 19:15 Clear 37 2.7 21 -6 53 53 SSE 5 7 30.15 1021 10 16.0934 N/A
7:35 pm 19:35 Clear 38 3.4 22 -5.8 51 51 SSE 5 7 30.18 1022 10 16.0934 N/A
7:55 pm 19:55 Clear 39 3.7 21 -6.1 49 49 SSE 9 15 30.15 1021 10 16.0934 N/A
8:15 pm 20:15 Clear 37 2.7 21 -6.2 52 52 SSE 9 15 30.15 1021 10 16.0934 N/A
8:35 pm 20:35 Clear 37 3 21 -5.9 52 52 S 8 13 30.12 1020 10 16.0934 N/A
8:55 pm 20:55 Clear 37 3 22 -5.7 53 53 S 7 11 30.12 1020 10 16.0934 N/A
9:15 pm 21:15 Clear 37 2.9 22 -5.6 54 54 SE 3 6 30.12 1020 10 16.0934 N/A
9:35 pm 21:35 Clear 38 3.1 22 -5.5 54 54 SE 3 6 30.12 1020 10 16.0934 N/A
9:55 pm 21:55 Clear 38 3.1 22 -5.5 54 54 Calm 30.12 1020 10 16.0934 N/A
10:15 pm 22:15 Clear 39 3.9 22 -5.5 51 51 SSE 7 11 30.12 1020 10 16.0934 N/A
10:35 pm 22:35 Clear 39 4 22 -5.5 50 50 S 9 15 30.09 1019 10 16.0934 N/A
10:55 pm 22:55 Clear 38 3.5 22 -5.5 52 52 S 7 11 30.09 1019 10 16.0934 N/A
11:15 pm 23:15 Clear 38 3.6 23 -5.1 53 53 S 6 9 30.09 1019 10 16.0934 N/A
11:35 pm 23:35 Clear 38 3.6 23 -4.9 54 54 S 9 15 30.09 1019 10 16.0934 N/A
11:55 pm 23:55 Clear 38 3.2 23 -5 55 55 S 5 7 30.09 1019 10 16.0934 N/A

Powered by AerisWeather